Temperatura - Umidità - Pioggia orarie del 21-05-2019

Intensità - Direzione vento orarie del 21-05-2019

Dati orari da stazione meteo del 21-05-2019

Nome Stazione Data Ora Temperatura [°C] Umidità [%] Pioggia [mm] Intensità vento[km/h] Direzione vento [°]
Savigliano 20-05-2019 02:00 11 91.5 0 0.7 29
Savigliano 20-05-2019 03:00 10.4 91.1 0 0 29
Savigliano 20-05-2019 04:00 9.6 90.6 0 0 29
Savigliano 20-05-2019 05:00 9.8 91 0 0 29
Savigliano 20-05-2019 06:00 9.6 91.5 0 0.4 29
Savigliano 20-05-2019 07:00 9.9 92.1 0 0.4 29
Savigliano 20-05-2019 08:00 9.4 92.5 0 0.4 30
Savigliano 20-05-2019 09:00 11.5 91.6 0 1.1 31
Savigliano 20-05-2019 10:00 14.2 80 0 1.8 31
Savigliano 20-05-2019 11:00 14.7 74.2 0 2.2 31
Savigliano 20-05-2019 12:00 16.3 68.4 0 2.9 32
Savigliano 20-05-2019 13:00 17.3 63.1 0 1.1 31
Savigliano 20-05-2019 14:00 17.8 64.6 0 2.9 35
Savigliano 20-05-2019 15:00 18 61.1 0 5 35
Savigliano 20-05-2019 16:00 18.1 63.7 0 4.7 34
Savigliano 20-05-2019 17:00 17.9 67.1 0 8.3 35
Savigliano 20-05-2019 18:00 17.3 67.4 0 11.2 34
Savigliano 20-05-2019 19:00 16 72.5 0 8.6 34
Savigliano 20-05-2019 20:00 14.8 73.9 0 5.8 32
Savigliano 20-05-2019 21:00 14.6 74.3 0 2.9 32
Savigliano 20-05-2019 22:00 14 80 0 2.2 31
Savigliano 20-05-2019 23:00 12 80.4 0 0.4 31
Savigliano 21-05-2019 00:00 12.2 85.6 0 0.4 31
Savigliano 21-05-2019 01:00 10.4 85.4 0 2.9 31
Savigliano 21-05-2019 02:00 9.4 86.5 0 2.2 31
Savigliano 21-05-2019 03:00 9.1 89.2 0 1.1 166
Savigliano 21-05-2019 04:00 9.3 90.2 0 1.1 178
Savigliano 21-05-2019 05:00 9.2 88.6 0 2.5 197
Savigliano 21-05-2019 06:00 9.8 89.2 0 0.4 185
Savigliano 21-05-2019 07:00 9.4 91.3 0 0.4 171
Savigliano 21-05-2019 08:00 10.8 89.4 0 0.7 145
Savigliano 21-05-2019 09:00 13.6 81.7 0 2.9 157
Savigliano 21-05-2019 10:00 15.9 73.4 0 2.9 140
Savigliano 21-05-2019 11:00 17.9 66 0 4 135
Savigliano 21-05-2019 12:00 19.4 60.6 0 5.8 101
Savigliano 21-05-2019 13:00 19.9 60.5 0 7.2 97
Savigliano 21-05-2019 14:00 19.9 55.4 0 7.2 108

Riassuntivo giornaliero del 21-05-2019